This is the latest recevied weather packets stored in our database for station/object OK2ILA-13. If no packets are shown the sender has not sent any weather packets the latest 10 day(s).
| Time | Temp. | Humidity | Pressure | Rain* | Wind** | Luminosity | Snow |
|---|---|---|---|---|---|---|---|
| 1777617862 | 10° C | 50% | 1027.2 hPa | - | - | - | - |
| 1777617261 | 10.56° C | 50% | 1027.1 hPa | - | - | - | - |
| 1777616662 | 10° C | 51% | 1027.2 hPa | - | - | - | - |
| 1777616063 | 9.44° C | 50% | 1027.2 hPa | - | - | - | - |
| 1777615463 | 9.44° C | 52% | 1027.1 hPa | - | - | - | - |
| 1777614865 | 8.89° C | 53% | 1027 hPa | - | - | - | - |
| 1777614265 | 8.89° C | 53% | 1027 hPa | - | - | - | - |
| 1777613665 | 8.33° C | 53% | 1026.9 hPa | - | - | - | - |
| 1777613066 | 7.78° C | 55% | 1027 hPa | - | - | - | - |
| 1777612466 | 7.78° C | 54% | 1027 hPa | - | - | - | - |
| 1777611867 | 7.22° C | 54% | 1027 hPa | - | - | - | - |
| 1777611267 | 7.22° C | 54% | 1026.9 hPa | - | - | - | - |
| 1777610668 | 6.67° C | 54% | 1026.9 hPa | - | - | - | - |
| 1777610068 | 6.67° C | 54% | 1026.8 hPa | - | - | - | - |
| 1777609469 | 6.67° C | 54% | 1027 hPa | - | - | - | - |
| 1777608869 | 6.67° C | 54% | 1027 hPa | - | - | - | - |
| 1777608269 | 6.11° C | 54% | 1026.9 hPa | - | - | - | - |
| 1777607670 | 6.11° C | 54% | 1027.1 hPa | - | - | - | - |
| 1777607071 | 5.56° C | 54% | 1027 hPa | - | - | - | - |
| 1777606471 | 5.56° C | 53% | 1027 hPa | - | - | - | - |
| 1777605871 | 5.56° C | 53% | 1026.9 hPa | - | - | - | - |
| 1777605271 | 5.56° C | 54% | 1027 hPa | - | - | - | - |
| 1777604672 | 5.56° C | 54% | 1027 hPa | - | - | - | - |
| 1777604072 | 5° C | 54% | 1027 hPa | - | - | - | - |
| 1777603472 | 5° C | 55% | 1027 hPa | - | - | - | - |
* Rain since midnight (hover to see other rain measurements)
** Current wind speed in m/s (hover to see current wind gust speed)